Home   Weather   Futaba   Past weeks
Flag for Japan

Past Weather in Futaba, Japan — Yesterday and Last 2 Weeks

Now
39 °F

Chilly.


Feels Like: 36 °F
Forecast: 49 / 38 °F
Wind: 3 mph from Northwest

Location: Tokyo

Current Time: Dec 9, 2019 at 6:01:27 am

Latest Report: Dec 9, 2019 at 5:00 am


Visibility: N/A

Pressure: 30.34 "Hg

Humidity: 68%

Dew Point: 29 °F

Location of FutabaLocation

Past Weather in Futaba — Graph

°F

Futaba Temperature Yesterday

Maximum temperature yesterday: 55 °F (at 12:00 pm)
Minimum temperature yesterday: 37 °F (at 7:00 am)
Average temperature yesterday: 45 °F

High & Low Weather Summary for the Past Weeks

 TemperatureHumidityPressure
High71 °F (Nov 25, 1:00 pm)100% (Nov 24, 4:00 am)30.44 "Hg (Nov 24, 4:00 am)
Low36 °F (Nov 29, 6:00 am)34% (Dec 4, 11:00 am)29.67 "Hg (Dec 2, 4:00 pm)
Average49 °F70%30.15 "Hg
* Reported Nov 24 4:00 am — Dec 9 4:00 am, Futaba. Weather by CustomWeather, © 2019

Note: Actual official high and low records may vary slightly from our data, if they occured in-between our weather recording intervals... More about our weather records

Futaba Weather History for the Previous 24 Hours

Scroll right to see more
 ConditionsComfort  
Time TempWeatherWind HumidityBarometerVisibility
4:00 am
Mon, Dec 9
40 °FChilly.6 mph62%30.33 "HgN/A
3:00 am40 °FPassing clouds.3 mph59%30.34 "Hg16 mi
1:00 am42 °FQuite cool.3 mph56%30.34 "HgN/A
12:00 am43 °FQuite cool.6 mph54%30.33 "HgN/A
11:00 pm
Sun, Dec 8
43 °FQuite cool.7 mph55%30.33 "HgN/A
10:00 pm44 °FQuite cool.3 mph53%30.33 "HgN/A
9:00 pm45 °FPassing clouds.5 mph49%30.32 "Hg16 mi
8:00 pm46 °FCool.6 mph50%30.30 "HgN/A
7:00 pm49 °FCool.6 mph41%30.29 "HgN/A
6:00 pm48 °FPassing clouds.7 mph51%30.27 "Hg16 mi
5:00 pm50 °FCool.8 mph51%30.23 "HgN/A
4:00 pm52 °FCool.5 mph47%30.21 "HgN/A
3:00 pm53 °FPassing clouds.5 mph48%30.18 "Hg16 mi
2:00 pm54 °FCool.3 mph46%30.17 "HgN/A
1:00 pm54 °FCool.3 mph43%30.16 "HgN/A
12:00 pm55 °FPassing clouds.3 mph49%30.16 "Hg22 mi
11:00 am52 °FCool.3 mph47%30.18 "HgN/A
10:00 am49 °FCool.2 mph53%30.19 "HgN/A
9:00 am47 °FSunny.3 mph55%30.19 "Hg22 mi
8:00 am41 °FQuite cool.3 mph67%30.17 "HgN/A
7:00 am37 °FChilly.3 mph79%30.15 "HgN/A
6:00 am37 °FPassing clouds.5 mph80%30.13 "Hg12 mi
Weather by CustomWeather, © 2019

See weather overview

Advertising